EW8215 Weather Reports


time (UTC)temp
C
wind
direction
speed
KPH
gust
KPH
rain 1hr
cm
rain 24hr
cm
rain mn
cm
humidity
%
barometer
mb
20260509224135 31 100 4.8 4.8 0.00 0.00 0.00 53 1008.3
20260509223632 32 139 3.2 4.8 0.00 0.00 0.00 54 1008.4
20260509223130 32 214 4.8 8.0 0.00 0.00 0.00 54 1008.2
20260509222627 32 181 3.2 3.2 0.00 0.00 0.00 53 1008.3
20260509222122 31 166 0.0 3.2 0.00 0.00 0.00 56 1008.2
20260509221618 32 258 3.2 8.0 0.00 0.00 0.00 56 1008.4
20260509221114 32 210 4.8 4.8 0.00 0.00 0.00 55 1008.2
20260509220610 32 173 1.6 3.2 0.00 0.00 0.00 58 1008.1
20260509220107 32 194 3.2 4.8 0.00 0.00 0.00 56 1008.3
20260509215602 32 73 1.6 4.8 0.00 0.00 0.00 54 1008.3
20260509215100 31 199 3.2 4.8 0.00 0.00 0.00 59 1008.3
20260509214557 32 200 6.4 8.0 0.00 0.00 0.00 55 1008.6
20260509214053 32 220 8.0 8.0 0.00 0.00 0.00 57 1008.4
20260509213549 31 163 1.6 3.2 0.00 0.00 0.00 59 1008.6
20260509213046 31 211 4.8 8.0 0.00 0.00 0.00 60 1008.6
20260509212543 31 184 4.8 8.0 0.00 0.00 0.00 60 1008.8
20260509212040 31 185 3.2 3.2 0.00 0.00 0.00 62 1008.8
20260509211536 32 169 3.2 4.8 0.00 0.00 0.00 61 1008.7
20260509211033 31 182 6.4 8.0 0.00 0.00 0.00 60 1008.8
20260509210530 32 137 3.2 4.8 0.00 0.00 0.00 59 1008.9
20260509210026 32 175 4.8 4.8 0.00 0.00 0.00 60 1009.0
20260509205520 31 158 0.0 0.0 0.00 0.00 0.00 59 1009.1
20260509205016 31 178 4.8 8.0 0.00 0.00 0.00 61 1009.2
20260509204512 31 183 4.8 8.0 0.00 0.00 0.00 58 1009.3
20260509204009 31 147 1.6 3.2 0.00 0.00 0.00 59 1009.1
20260509203505 32 164 3.2 4.8 0.00 0.00 0.00 61 1009.2
20260509203004 32 175 4.8 8.0 0.00 0.00 0.00 58 1009.4
20260509202458 31 153 0.0 3.2 0.00 0.00 0.00 58 1009.5
20260509201954 30 258 6.4 8.0 0.00 0.00 0.00 59 1009.5
20260509201454 31 141 3.2 4.8 0.00 0.00 0.00 62 1009.8
20260509200951 31 20 9.7 11.3 0.00 0.00 0.00 63 1009.8
20260509200446 31 237 9.7 14.5 0.00 0.00 0.00 62 1010.0
20260509195943 30 160 0.0 3.2 0.00 0.00 0.00 61 1010.0
20260509195439 31 333 4.8 8.0 0.00 0.00 0.00 66 1010.0
20260509194938 31 124 3.2 4.8 0.00 0.00 0.00 62 1010.0
20260509194434 31 340 9.7 11.3 0.00 0.00 0.00 60 1009.9
20260509193931 30 153 0.0 0.0 0.00 0.00 0.00 64 1009.9
20260509193430 30 171 0.0 3.2 0.00 0.00 0.00 63 1010.1
20260509192927 30 3 9.7 11.3 0.00 0.00 0.00 64 1009.7
20260509192423 31 355 9.7 14.5 0.00 0.00 0.00 67 1010.0
20260509191918 31 123 6.4 8.0 0.00 0.00 0.00 64 1010.0
20260509191409 31 156 1.6 3.2 0.00 0.00 0.00 63 1010.3
20260509190905 30 163 1.6 3.2 0.00 0.00 0.00 65 1010.4
20260509190403 30 187 4.8 4.8 0.00 0.00 0.00 65 1010.3
20260509185900 30 117 3.2 4.8 0.00 0.00 0.00 69 1010.4
20260509185356 29 121 1.6 3.2 0.00 0.00 0.00 70 1010.7
20260509184853 30 86 4.8 4.8 0.00 0.00 0.00 70 1010.8
20260509184350 30 94 3.2 4.8 0.00 0.00 0.00 69 1010.7
20260509183848 30 136 3.2 3.2 0.00 0.00 0.00 67 1010.9
20260509183342 30 176 3.2 3.2 0.00 0.00 0.00 67 1010.8
20260509182838 30 186 3.2 4.8 0.00 0.00 0.00 68 1010.9
20260509182336 30 192 4.8 4.8 0.00 0.00 0.00 70 1010.9
20260509181833 30 185 6.4 8.0 0.00 0.00 0.00 69 1011.0
20260509181330 30 167 3.2 3.2 0.00 0.00 0.00 69 1010.9
20260509180827 30 169 0.0 0.0 0.00 0.00 0.00 68 1011.0
20260509180323 29 146 4.8 4.8 0.00 0.00 0.00 69 1011.2
20260509175820 28 160 3.2 4.8 0.00 0.00 0.00 73 1011.1
20260509175316 30 348 4.8 4.8 0.00 0.00 0.00 70 1011.2
20260509174812 29 180 3.2 4.8 0.00 0.00 0.00 69 1011.3
20260509174308 29 135 1.6 3.2 0.00 0.00 0.00 69 1011.3
20260509173804 29 164 1.6 3.2 0.00 0.00 0.00 72 1011.3
20260509173300 28 144 0.0 0.0 0.00 0.00 0.00 74 1011.3
20260509172756 28 186 4.8 4.8 0.00 0.00 0.00 73 1011.4
20260509172253 28 166 4.8 4.8 0.00 0.00 0.00 73 1011.5
20260509171749 27 134 3.2 4.8 0.00 0.00 0.00 78 1011.4
20260509171245 27 142 0.0 3.2 0.00 0.00 0.00 77 1011.6
20260509170742 28 154 3.2 3.2 0.00 0.00 0.00 76 1011.6
20260509170238 29 4 6.4 8.0 0.00 0.00 0.00 72 1011.8
20260509165736 29 117 1.6 4.8 0.00 0.00 0.00 72 1011.7
20260509165232 28 157 3.2 3.2 0.00 0.00 0.00 75 1011.7
20260509164728 28 164 4.8 8.0 0.00 0.00 0.00 77 1011.7
20260509164224 27 162 6.4 8.0 0.00 0.00 0.00 79 1011.7
20260509163721 27 162 3.2 4.8 0.00 0.00 0.00 80 1011.7
20260509163217 26 165 4.8 8.0 0.00 0.00 0.00 83 1012.0
20260509162715 26 174 4.8 4.8 0.00 0.00 0.00 81 1012.1
20260509162210 26 151 0.0 0.0 0.00 0.00 0.00 81 1011.9
20260509161706 26 148 0.0 0.0 0.00 0.00 0.00 80 1012.0
20260509161203 26 300 3.2 4.8 0.00 0.00 0.00 81 1012.0
20260509160658 26 152 3.2 4.8 0.00 0.00 0.00 81 1012.3
20260509160154 26 160 0.0 0.0 0.00 0.00 0.00 81 1012.1
20260509155650 26 128 1.6 3.2 0.00 0.00 0.00 83 1012.1
20260509155146 27 140 0.0 0.0 0.00 0.00 0.00 80 1011.7
20260509154642 25 163 1.6 3.2 0.00 0.00 0.00 85 1012.0
20260509154139 25 131 0.0 0.0 0.00 0.00 0.00 86 1011.8
20260509153636 25 137 1.6 3.2 0.00 0.00 0.00 87 1011.9
20260509153133 25 148 0.0 0.0 0.00 0.00 0.00 86 1011.8
20260509152628 25 130 0.0 3.2 0.00 0.00 0.00 86 1011.8
20260509152126 25 164 3.2 4.8 0.00 0.00 0.00 88 1011.9
20260509151622 25 132 3.2 3.2 0.00 0.00 0.00 86 1011.6
20260509151120 25 148 0.0 0.0 0.00 0.00 0.00 87 1011.6
20260509150618 25 168 0.0 0.0 0.00 0.00 0.00 88 1011.7
20260509150116 25 152 0.0 3.2 0.00 0.00 0.00 89 1011.6
20260509145611 25 341 6.4 8.0 0.00 0.00 0.00 88 1011.7
20260509145106 25 309 3.2 8.0 0.00 0.00 0.00 88 1011.4
20260509144603 25 134 3.2 4.8 0.00 0.00 0.00 88 1011.4
20260509144100 25 186 3.2 4.8 0.00 0.00 0.00 89 1011.3
20260509143557 25 120 4.8 4.8 0.00 0.00 0.00 89 1011.2
20260509143055 24 212 8.0 11.3 0.00 0.00 0.00 90 1010.8
20260509142550 23 183 3.2 4.8 0.00 0.00 0.00 92 1010.7
20260509142046 23 6 4.8 4.8 0.00 0.00 0.00 93 1010.9
20260509141543 23 316 4.8 8.0 0.00 0.00 0.00 93 1011.0
20260509141039 23 335 11.3 14.5 0.00 0.00 0.00 93 1010.9
20260509140536 23 249 6.4 8.0 0.00 0.00 0.00 94 1010.3
20260509140034 23 153 1.6 3.2 0.00 0.00 0.00 95 1010.1
20260509135531 23 205 9.7 14.5 0.00 0.00 0.00 95 1010.0
20260509135029 23 213 3.2 11.3 0.00 0.00 0.00 97 1010.0
20260509134526 22 203 4.8 8.0 0.00 0.00 0.00 98 1010.3
20260509134023 22 202 8.0 11.3 0.00 0.00 0.00 98 1010.2
20260509133520 22 178 8.0 11.3 0.00 0.00 0.00 98 1010.1
20260509133018 22 199 4.8 8.0 0.00 0.00 0.00 98 1009.9
20260509132516 22 190 3.2 4.8 0.00 0.00 0.00 98 1010.0
20260509132014 22 143 6.4 14.5 0.00 0.00 0.00 99 1009.6
20260509131509 22 146 9.7 14.5 0.00 0.00 0.00 99 1009.9
20260509131006 22 186 4.8 8.0 0.00 0.00 0.00 99 1009.9
20260509130502 21 171 3.2 3.2 0.00 0.00 0.00 99 1009.7
20260509125959 21 172 0.0 3.2 0.00 0.00 0.00 99 1010.0
20260509125455 21 190 0.0 0.0 0.00 0.00 0.00 99 1009.9
20260509124951 21 176 3.2 3.2 0.00 0.00 0.00 99 1010.1
20260509124449 21 155 0.0 0.0 0.00 0.00 0.00 99 1010.1
20260509123946 21 167 0.0 0.0 0.00 0.00 0.00 99 1010.1
20260509123443 21 164 0.0 0.0 0.00 0.00 0.00 99 1010.2
20260509122939 21 163 0.0 0.0 0.00 0.00 0.00 99 1010.3
20260509122436 21 164 0.0 0.0 0.00 0.00 0.00 99 1010.2
20260509121933 21 78 4.8 4.8 0.00 0.00 0.00 99 1010.3
20260509121430 21 157 0.0 0.0 0.00 0.00 0.00 99 1010.3
20260509120928 21 150 0.0 0.0 0.00 0.00 0.00 99 1010.4
20260509120425 21 159 0.0 0.0 0.00 0.00 0.00 99 1010.3
20260509115923 21 153 0.0 0.0 0.00 0.00 0.00 99 1010.3
20260509115420 21 155 0.0 0.0 0.00 0.00 0.00 99 1010.4
20260509114918 21 156 0.0 0.0 0.00 0.00 0.00 99 1010.9
20260509114416 21 155 0.0 0.0 0.00 0.00 0.00 99 1010.8
20260509113916 21 159 1.6 3.2 0.00 0.00 0.00 99 1011.0
20260509113413 21 154 0.0 0.0 0.00 0.00 0.00 99 1011.1
20260509112909 21 154 0.0 0.0 0.00 0.00 0.00 99 1011.0
20260509112406 21 155 0.0 0.0 0.00 0.00 0.00 99 1011.4
20260509111903 21 129 1.6 3.2 0.00 0.00 0.00 99 1011.3
20260509111400 21 167 1.6 4.8 0.00 0.00 0.00 99 1011.2
20260509110858 21 171 6.4 8.0 0.00 0.00 0.00 99 1011.3
20260509110353 21 171 3.2 4.8 0.00 0.00 0.00 99 1011.4
20260509105852 21 165 0.0 0.0 0.00 0.00 0.00 98 1011.7
20260509105350 21 165 0.0 0.0 0.00 0.00 0.00 98 1011.8
20260509104847 21 149 0.0 0.0 0.00 0.00 0.00 98 1011.6
20260509104343 21 146 0.0 0.0 0.00 0.00 0.00 98 1011.7
20260509103841 21 159 0.0 0.0 0.00 0.00 0.00 98 1011.7
20260509103338 21 161 0.0 0.0 0.00 0.00 0.00 98 1011.8
20260509102837 21 162 0.0 0.0 0.00 0.00 0.00 98 1011.8
20260509102333 21 158 0.0 0.0 0.00 0.00 0.00 98 1011.8
20260509101829 21 141 0.0 0.0 0.00 0.00 0.00 98 1011.9
20260509101326 21 146 1.6 3.2 0.00 0.00 0.00 98 1011.9
20260509100824 21 141 1.6 3.2 0.00 0.00 0.00 98 1011.8
20260509100320 21 174 0.0 0.0 0.00 0.00 0.00 98 1011.8
20260509095817 21 123 0.0 0.0 0.00 0.00 0.00 98 1011.9
20260509095314 21 157 3.2 3.2 0.00 0.00 0.00 98 1011.4
20260509094811 21 146 0.0 0.0 0.00 0.00 0.00 98 1011.3
20260509094308 21 145 0.0 0.0 0.00 0.00 0.00 98 1011.0
20260509093806 21 157 0.0 0.0 0.00 0.00 0.00 98 1011.1
20260509093303 21 156 0.0 0.0 0.00 0.00 0.00 98 1011.0
20260509092801 21 154 0.0 3.2 0.00 0.00 0.00 98 1011.3
20260509092259 21 208 3.2 4.8 0.00 0.00 0.00 98 1011.3
20260509091757 21 143 0.0 0.0 0.00 0.00 0.00 98 1011.5
20260509091253 21 143 0.0 0.0 0.00 0.00 0.00 98 1011.4
20260509090750 21 146 0.0 0.0 0.00 0.00 0.00 98 1011.3
20260509090247 21 139 0.0 0.0 0.00 0.00 0.00 98 1011.0
20260509085745 21 126 0.0 0.0 0.00 0.00 0.00 97 1010.9
20260509085242 21 153 0.0 0.0 0.00 0.00 0.00 97 1011.0
20260509084738 21 155 0.0 0.0 0.00 0.00 0.00 97 1010.9
20260509084235 21 157 0.0 0.0 0.00 0.00 0.00 97 1010.9
20260509083733 21 148 0.0 0.0 0.00 0.00 0.00 97 1010.8
20260509083230 21 147 0.0 0.0 0.00 0.00 0.00 97 1011.0
20260509082726 21 146 0.0 0.0 0.00 0.00 0.00 97 1011.0
20260509082223 21 155 0.0 0.0 0.00 0.00 0.00 97 1011.2
20260509081720 21 147 0.0 0.0 0.00 0.00 0.00 97 1011.0
20260509081218 21 148 0.0 0.0 0.00 0.00 0.00 97 1011.1
20260509080716 21 145 0.0 0.0 0.00 0.00 0.00 97 1011.1
20260509080213 21 150 0.0 0.0 0.00 0.00 0.00 97 1011.5
20260509075711 21 143 0.0 0.0 0.00 0.00 0.00 97 1011.4
20260509075209 21 145 0.0 0.0 0.00 0.00 0.00 97 1011.3
20260509074705 21 125 0.0 0.0 0.00 0.00 0.00 97 1011.3
20260509074202 21 147 0.0 0.0 0.00 0.00 0.00 97 1011.7
20260509073659 21 153 0.0 0.0 0.00 0.00 0.00 97 1011.6
20260509073155 21 154 0.0 0.0 0.00 0.00 0.00 97 1011.7
20260509072652 21 154 0.0 0.0 0.00 0.00 0.00 97 1011.6
20260509072148 21 155 0.0 0.0 0.00 0.00 0.00 97 1011.6
20260509071645 21 153 0.0 0.0 0.00 0.00 0.00 97 1011.3
20260509071142 21 153 0.0 0.0 0.00 0.00 0.00 97 1011.2
20260509070639 21 158 0.0 0.0 0.00 0.00 0.00 97 1011.3
20260509070136 21 159 0.0 0.0 0.00 0.00 0.00 97 1011.4
20260509065631 21 156 0.0 0.0 0.00 0.00 0.00 97 1011.4
20260509065128 21 156 0.0 0.0 0.00 0.00 0.00 97 1011.8
20260509064625 21 155 0.0 0.0 0.00 0.00 0.00 97 1011.6
20260509064123 21 156 0.0 0.0 0.00 0.00 0.00 97 1011.5
20260509063620 20 142 0.0 0.0 0.00 0.00 0.00 97 1011.5
20260509063116 20 142 0.0 0.0 0.00 0.00 0.00 97 1011.4
20260509062613 20 140 0.0 0.0 0.00 0.00 0.00 97 1011.2
20260509062110 20 140 0.0 0.0 0.00 0.00 0.00 97 1011.2
20260509061607 20 141 0.0 0.0 0.00 0.00 0.00 97 1011.4
20260509061104 21 141 0.0 0.0 0.00 0.00 0.00 97 1011.3
20260509060602 21 141 0.0 0.0 0.00 0.00 0.00 97 1011.3
20260509060058 21 140 0.0 0.0 0.00 0.00 0.00 97 1010.9
20260509055553 20 141 0.0 0.0 0.00 0.00 0.00 97 1011.1
20260509055049 21 141 0.0 0.0 0.00 0.00 0.00 97 1011.0
20260509054546 20 141 0.0 0.0 0.00 0.00 0.00 97 1010.7
20260509054044 20 141 0.0 0.0 0.00 0.00 0.00 96 1010.4
20260509053543 20 141 0.0 0.0 0.00 0.00 0.00 96 1010.4
20260509053039 21 141 0.0 0.0 0.00 0.00 0.00 96 1010.4
20260509052537 21 140 0.0 0.0 0.00 0.00 0.00 96 1010.5
20260509052035 21 144 0.0 0.0 0.00 0.00 0.00 96 1010.5
20260509051533 21 132 3.2 4.8 0.00 0.00 0.00 96 1010.7
20260509051030 21 144 0.0 3.2 0.00 0.00 0.00 95 1010.4
20260509050526 21 145 1.6 3.2 0.00 0.00 0.00 95 1010.7
20260509050017 21 141 3.2 3.2 0.00 0.00 0.00 95 1010.4
20260509045515 21 141 1.6 3.2 0.00 0.00 0.00 95 1010.4
20260509045011 21 139 1.6 3.2 0.00 0.00 0.00 95 1010.8
20260509044509 21 129 4.8 4.8 0.00 0.00 0.00 94 1010.5
20260509044006 21 144 0.0 0.0 0.00 0.00 0.00 94 1010.3
20260509043502 21 161 0.0 0.0 0.00 0.00 0.00 94 1010.3
20260509042957 21 160 0.0 0.0 0.00 0.00 0.00 94 1010.3
20260509042454 21 160 0.0 0.0 0.00 0.00 0.00 94 1010.4
20260509041950 22 149 0.0 0.0 0.00 0.00 0.00 94 1010.3
20260509041447 22 155 0.0 0.0 0.00 0.00 0.00 94 1010.3
20260509040945 22 157 0.0 3.2 0.00 0.00 0.00 93 1010.2
20260509040443 22 161 0.0 0.0 0.00 0.00 0.00 93 1010.2
20260509035939 22 156 0.0 0.0 0.00 0.00 0.00 93 1010.3
20260509035436 22 156 0.0 3.2 0.00 0.00 0.00 93 1010.0
20260509034933 22 153 1.6 3.2 0.00 0.00 0.00 93 1010.1
20260509034431 22 160 1.6 3.2 0.00 0.00 0.00 92 1010.1
20260509033928 22 161 1.6 3.2 0.00 0.00 0.00 92 1009.8
20260509033425 22 154 0.0 3.2 0.00 0.00 0.00 92 1009.9
20260509032921 22 160 1.6 3.2 0.00 0.00 0.00 91 1009.8
20260509032419 22 159 4.8 4.8 0.00 0.00 0.00 91 1010.0
20260509031917 22 159 4.8 8.0 0.00 0.00 0.00 90 1009.8
20260509031414 22 156 3.2 4.8 0.00 0.00 0.00 90 1010.0
20260509030911 23 156 6.4 8.0 0.00 0.00 0.00 90 1009.9
20260509030409 23 170 3.2 3.2 0.00 0.00 0.00 90 1009.8
20260509025906 23 159 4.8 8.0 0.00 0.00 0.00 89 1009.7
20260509025401 23 172 3.2 3.2 0.00 0.00 0.00 89 1009.6
20260509024856 23 157 4.8 4.8 0.00 0.00 0.00 89 1009.6
20260509024353 23 159 4.8 4.8 0.00 0.00 0.00 88 1009.5
20260509023850 23 190 6.4 8.0 0.00 0.00 0.00 88 1009.2
20260509023348 23 150 0.0 3.2 0.00 0.00 0.00 88 1009.3
20260509022844 23 149 4.8 4.8 0.00 0.00 0.00 88 1009.3
20260509022341 23 191 9.7 14.5 0.00 0.00 0.00 88 1009.3
20260509021838 23 147 8.0 11.3 0.00 0.00 0.00 88 1009.1
20260509021330 23 144 3.2 4.8 0.00 0.00 0.00 88 1009.1
20260509020828 23 156 9.7 11.3 0.00 0.00 0.00 88 1009.2
20260509020325 23 182 6.4 8.0 0.00 0.00 0.00 88 1009.0
20260509015822 23 160 1.6 3.2 0.00 0.00 0.00 88 1009.2
20260509015320 23 120 0.0 0.0 0.00 0.00 0.00 88 1009.3
20260509014816 23 142 0.0 0.0 0.00 0.00 0.00 88 1009.2
20260509014314 23 146 0.0 0.0 0.00 0.00 0.00 88 1009.2
20260509013810 23 148 0.0 0.0 0.00 0.00 0.00 89 1009.2
20260509013307 23 145 0.0 0.0 0.00 0.00 0.00 89 1009.2
20260509012803 23 138 0.0 0.0 0.00 0.00 0.00 90 1009.2
20260509012259 23 139 0.0 0.0 0.00 0.00 0.00 89 1009.0
20260509011757 23 139 0.0 0.0 0.00 0.00 0.00 89 1009.0
20260509011254 23 143 0.0 0.0 0.00 0.00 0.00 89 1009.3
20260509010752 23 136 4.8 4.8 0.00 0.00 0.00 88 1009.1
20260509010248 23 136 4.8 4.8 0.00 0.00 0.00 88 1009.1
20260509005746 23 137 4.8 4.8 0.00 0.00 0.00 88 1009.2
20260509005243 23 144 3.2 4.8 0.00 0.00 0.00 87 1009.3
20260509004737 23 130 3.2 4.8 0.00 0.00 0.00 87 1009.1
20260509004235 23 137 6.4 8.0 0.00 0.00 0.00 86 1009.1
20260509003733 23 147 3.2 3.2 0.00 0.00 0.00 86 1009.1
20260509003230 23 136 4.8 4.8 0.00 0.00 0.00 86 1009.2
20260509002727 23 124 6.4 8.0 0.00 0.00 0.00 86 1009.2
20260509002225 23 131 0.0 0.0 0.00 0.00 0.00 85 1009.4
20260509001722 24 140 0.0 0.0 0.00 0.00 0.00 84 1009.3
20260509001218 24 140 0.0 0.0 0.00 0.00 0.00 84 1009.5
20260509000716 24 140 0.0 0.0 0.00 0.00 0.00 84 1009.3
20260509000213 24 125 4.8 4.8 0.00 0.00 0.00 83 1009.5
20260508235710 24 135 4.8 4.8 0.00 0.00 0.00 83 1009.5
20260508235206 24 130 6.4 8.0 0.00 0.00 0.00 82 1009.3
20260508234704 25 142 3.2 4.8 0.00 0.00 0.00 82 1009.4
20260508234200 25 138 3.2 4.8 0.00 0.00 0.00 81 1009.4
20260508233659 25 135 4.8 4.8 0.00 0.00 0.00 81 1009.7
20260508233157 25 141 0.0 0.0 0.00 0.00 0.00 81 1009.5
20260508232654 25 140 0.0 0.0 0.00 0.00 0.00 81 1009.4
20260508232150 25 142 1.6 3.2 0.00 0.00 0.00 80 1009.6
20260508231649 25 142 0.0 0.0 0.00 0.00 0.00 81 1009.6
20260508231145 25 144 0.0 0.0 0.00 0.00 0.00 80 1009.6
20260508230642 25 141 0.0 0.0 0.00 0.00 0.00 79 1009.7
20260508230138 25 142 0.0 0.0 0.00 0.00 0.00 81 1009.7
20260508225636 25 147 0.0 0.0 0.00 0.00 0.00 81 1009.6
20260508225132 25 144 3.2 4.8 0.00 0.00 0.00 80 1009.6
20260508224630 25 135 6.4 8.0 0.00 0.00 0.00 79 1009.6